STARLINK-34520

导读

STARLINK-34520是美国(US)于2025年6月23日发射的星链系列卫星,隶属于SpaceX公司的星链(Starlink)项目。星链项目旨在构建全球卫星互联网星座,为全球多地提供高速低延迟宽带网络服务,该卫星的发射进一步推进了星链星座的组网部署进程。

Basic Information
目录编号:
64486
目录名称:
STARLINK-34520
国际标识:
2025-133Q
轨道中心:
EARTH
卫星名称:
STARLINK-34520
卫星全名:
STARLINK-34520
卫星状态:
在轨 (已飞行447 天)
发射日期:
2025-06-23 UTC
国别 :
美国 (US)
星等 :
--
This satellite is enrolled in the Space Conjunction Data Service (SCDS) and the current flight risk assessment level is: No High Risk
Orbit Information
数据来源 国际轨道数据
星历时间: 2026-09-12T12:39:15+0800
20小时前
查看轨道信息
半长轴: 6840.847km
偏心率: 0.0001488
轨道倾角: 53.160°
近地点辐角 87.429°
升交点赤经 328.335°
平近点角 272.688°
近地点: 461.692km
远地点: 463.728km
周期: 93.848分钟
每日圈数: 15.343979
Detailed Information
使用方式:
暂无
2D Orbit Map
3D Orbit Map
Orbit Altitude Analysis Chart
Orbit Inclination Analysis Chart
Orbit Comprehensive Analysis Chart
View Comprehensive Chart
Conjunction Data List
Event ID Objects TCA Miss Dist (km) Collision Risk Probability Collision Risk Index (CRI) Action
CDM_260906-111705-177406-448622
2026-09-06T
11:17:53+0000
2.746 km
极远距离
1.207951E-6 低风险 0.37
CDM_260914-211405-313706-448621
2026-09-14T
21:14:47+0000
2.568 km
极远距离
1.134682E-6 低风险 0.36
Miss Distance Evolution Trend with All Objects
Collision Probability Evolution Trend with All Objects